When you browse on this site, cookies collect data to enhance your experience and personalize the content and advertising you see.
Visit our Privacy Policy to learn more. By continuing to use the site, you agree to this use of cookies and data.
  • en Belgique
  • Liste des pays
  • À 7 jours
  • Température de l'eau
  • Carte satellitaire
  • Carte météo
  • Widgets météo
  • user-avatar
    Se connecter

    Météo par heure à Sevan

    Ce jour, 23 Mars, Samedi

    Heure Température Précipitation Vent Pression Humidité
    00:00 0°C° 0 mm 1 m/s 640 mmHg 59%
    01:00 0°C° 0 mm 1 m/s 640 mmHg 60%
    02:00 0°C° 0 mm 1 m/s 640 mmHg 61%
    03:00 -1°C° 0 mm 1 m/s 639 mmHg 65%
    04:00 -1°C° 0 mm 1 m/s 639 mmHg 66%
    05:00 -1°C° 0 mm 1 m/s 639 mmHg 68%
    06:00 -1°C° 0 mm 1 m/s 639 mmHg 70%
    07:00 -2°C° 0 mm 2 m/s 639 mmHg 67%
    08:00 +1°C° 0 mm 2 m/s 639 mmHg 64%
    09:00 +1°C° 0 mm 3 m/s 639 mmHg 61%
    10:00 +2°C° 0 mm 3 m/s 638 mmHg 60%
    11:00 +3°C° 0 mm 3 m/s 638 mmHg 60%
    12:00 +3°C° 0 mm 3 m/s 637 mmHg 60%
    13:00 +3°C° 0.1 mm 3 m/s 637 mmHg 60%
    14:00 +4°C° 0.1 mm 3 m/s 637 mmHg 60%
    15:00 +4°C° 0 mm 3 m/s 636 mmHg 61%
    16:00 +3°C° 0.1 mm 3 m/s 636 mmHg 62%
    17:00 +3°C° 0.1 mm 3 m/s 636 mmHg 63%
    18:00 +3°C° 0.1 mm 2 m/s 635 mmHg 64%
    19:00 +2°C° 0.1 mm 2 m/s 636 mmHg 64%
    20:00 +2°C° 0.1 mm 2 m/s 636 mmHg 64%
    21:00 +1°C° 0.1 mm 2 m/s 636 mmHg 64%
    22:00 +1°C° 0 mm 2 m/s 636 mmHg 65%
    23:00 +1°C° 0 mm 2 m/s 635 mmHg 65%

    Demain, 24 Mars, Dimanche

    Heure Température Précipitation Vent Pression Humidité
    00:00 -1°C° 0 mm 2 m/s 635 mmHg 65%
    01:00 +1°C° 0.1 mm 2 m/s 635 mmHg 68%
    02:00 +1°C° 0.1 mm 2 m/s 635 mmHg 70%
    03:00 +1°C° 0.1 mm 2 m/s 634 mmHg 72%
    04:00 +1°C° 0.4 mm 2 m/s 634 mmHg 74%
    05:00 +2°C° 0.4 mm 1 m/s 634 mmHg 76%
    06:00 +2°C° 0.4 mm 1 m/s 634 mmHg 78%
    07:00 +3°C° 0.4 mm 1 m/s 635 mmHg 76%
    08:00 +3°C° 0.4 mm 2 m/s 635 mmHg 74%
    09:00 +3°C° 0.4 mm 2 m/s 635 mmHg 72%
    10:00 +4°C° 0.6 mm 2 m/s 635 mmHg 72%
    11:00 +5°C° 0.6 mm 1 m/s 634 mmHg 72%
    12:00 +6°C° 0.6 mm 1 m/s 634 mmHg 72%
    13:00 +6°C° 0.4 mm 1 m/s 634 mmHg 71%
    14:00 +5°C° 0.4 mm 2 m/s 634 mmHg 70%
    15:00 +5°C° 0.4 mm 2 m/s 633 mmHg 70%
    16:00 +5°C° 0.4 mm 2 m/s 634 mmHg 71%
    17:00 +4°C° 0.4 mm 2 m/s 634 mmHg 72%
    18:00 +2°C° 0.4 mm 3 m/s 634 mmHg 73%
    19:00 +2°C° 0.5 mm 3 m/s 634 mmHg 74%
    20:00 +1°C° 0.5 mm 3 m/s 635 mmHg 74%
    21:00 +1°C° 0.5 mm 3 m/s 635 mmHg 75%
    22:00 0°C° 0.2 mm 3 m/s 635 mmHg 75%
    23:00 0°C° 0.2 mm 3 m/s 635 mmHg 75%

    Après-demain, 25 Mars, Lundi

    Heure Température Précipitation Vent Pression Humidité
    00:00 -1°C° 0.2 mm 3 m/s 635 mmHg 75%
    01:00 -1°C° 0.1 mm 3 m/s 635 mmHg 75%
    02:00 -1°C° 0.1 mm 3 m/s 635 mmHg 74%
    03:00 -2°C° 0.1 mm 3 m/s 634 mmHg 74%
    04:00 -2°C° 0 mm 3 m/s 634 mmHg 74%
    05:00 -2°C° 0 mm 3 m/s 634 mmHg 74%
    06:00 -3°C° 0 mm 4 m/s 634 mmHg 75%
    07:00 -1°C° 0 mm 4 m/s 634 mmHg 73%
    08:00 0°C° 0 mm 4 m/s 634 mmHg 71%
    09:00 +1°C° 0 mm 4 m/s 634 mmHg 70%
    10:00 +3°C° 0 mm 4 m/s 634 mmHg 69%
    11:00 +4°C° 0 mm 4 m/s 634 mmHg 69%
    12:00 +5°C° 0 mm 4 m/s 634 mmHg 68%
    13:00 +5°C° 0.1 mm 4 m/s 634 mmHg 68%
    14:00 +5°C° 0.1 mm 4 m/s 634 mmHg 67%
    15:00 +5°C° 0.1 mm 4 m/s 633 mmHg 67%
    16:00 +4°C° 0.2 mm 4 m/s 634 mmHg 68%
    17:00 +4°C° 0.2 mm 3 m/s 634 mmHg 69%
    18:00 +3°C° 0.2 mm 3 m/s 634 mmHg 71%
    19:00 +3°C° 0.2 mm 3 m/s 635 mmHg 72%
    20:00 +2°C° 0.2 mm 3 m/s 635 mmHg 73%
    21:00 +2°C° 0.2 mm 3 m/s 636 mmHg 74%
    22:00 +2°C° 0.2 mm 2 m/s 636 mmHg 74%
    23:00 +2°C° 0.2 mm 2 m/s 636 mmHg 75%

    26 Mars, Mardi

    Heure Température Précipitation Vent Pression Humidité
    00:00 +2°C° 0.2 mm 2 m/s 636 mmHg 75%
    01:00 +2°C° 0.1 mm 2 m/s 636 mmHg 76%
    02:00 +1°C° 0.1 mm 2 m/s 636 mmHg 76%
    03:00 +1°C° 0.1 mm 2 m/s 636 mmHg 76%
    04:00 +2°C° 0.1 mm 1 m/s 636 mmHg 76%
    05:00 +2°C° 0.1 mm 1 m/s 637 mmHg 77%
    06:00 +2°C° 0.1 mm 1 m/s 637 mmHg 77%
    07:00 +3°C° 0.2 mm 1 m/s 637 mmHg 75%
    08:00 +4°C° 0.2 mm 1 m/s 638 mmHg 73%
    09:00 +5°C° 0.2 mm 1 m/s 638 mmHg 71%
    10:00 +6°C° 0.1 mm 1 m/s 638 mmHg 70%
    11:00 +7°C° 0.1 mm 1 m/s 638 mmHg 69%
    12:00 +7°C° 0.1 mm 1 m/s 637 mmHg 68%
    13:00 +8°C° 0.1 mm 1 m/s 637 mmHg 67%
    14:00 +8°C° 0.1 mm 1 m/s 637 mmHg 66%
    15:00 +8°C° 0.1 mm 1 m/s 637 mmHg 65%
    16:00 +8°C° 0.1 mm 1 m/s 637 mmHg 66%
    17:00 +7°C° 0.1 mm 1 m/s 636 mmHg 67%
    18:00 +6°C° 0.1 mm 2 m/s 636 mmHg 69%
    19:00 +5°C° 0.1 mm 2 m/s 637 mmHg 71%
    20:00 +4°C° 0.1 mm 2 m/s 637 mmHg 73%
    21:00 +4°C° 0.1 mm 2 m/s 637 mmHg 75%
    22:00 +3°C° 0 mm 2 m/s 637 mmHg 75%
    23:00 +3°C° 0 mm 2 m/s 637 mmHg 76%

    27 Mars, Mercredi

    Heure Température Précipitation Vent Pression Humidité
    00:00 +3°C° 0 mm 2 m/s 636 mmHg 77%
    01:00 +3°C° 0.1 mm 1 m/s 636 mmHg 77%
    02:00 +3°C° 0.1 mm 1 m/s 636 mmHg 77%
    03:00 +2°C° 0.1 mm 0 m/s 636 mmHg 77%
    04:00 +2°C° 0.1 mm 0 m/s 636 mmHg 76%
    05:00 +3°C° 0.1 mm 1 m/s 636 mmHg 76%
    06:00 +3°C° 0.1 mm 1 m/s 636 mmHg 76%
    07:00 +4°C° 0.2 mm 1 m/s 636 mmHg 74%
    08:00 +5°C° 0.2 mm 1 m/s 637 mmHg 71%
    09:00 +5°C° 0.2 mm 2 m/s 637 mmHg 69%
    10:00 +5°C° 0.1 mm 2 m/s 637 mmHg 68%
    11:00 +6°C° 0.1 mm 2 m/s 637 mmHg 66%
    12:00 +7°C° 0.1 mm 2 m/s 637 mmHg 65%
    13:00 +7°C° 0.1 mm 2 m/s 637 mmHg 63%
    14:00 +8°C° 0.1 mm 2 m/s 637 mmHg 62%
    15:00 +8°C° 0.1 mm 2 m/s 637 mmHg 60%
    16:00 +7°C° 0.1 mm 2 m/s 637 mmHg 62%
    17:00 +7°C° 0.1 mm 2 m/s 637 mmHg 63%
    18:00 +6°C° 0.1 mm 2 m/s 637 mmHg 64%
    19:00 +6°C° 0.1 mm 1 m/s 637 mmHg 66%
    20:00 +6°C° 0.1 mm 1 m/s 638 mmHg 67%
    21:00 +5°C° 0.1 mm 1 m/s 638 mmHg 68%
    22:00 +5°C° 0.1 mm 1 m/s 638 mmHg 69%
    23:00 +5°C° 0.1 mm 1 m/s 638 mmHg 69%

    28 Mars, Jeudi

    Heure Température Précipitation Vent Pression Humidité
    00:00 +4°C° 0.1 mm 1 m/s 638 mmHg 70%
    01:00 +4°C° 0.1 mm 1 m/s 638 mmHg 71%
    02:00 +3°C° 0.1 mm 0 m/s 638 mmHg 73%
    03:00 +3°C° 0.1 mm 0 m/s 638 mmHg 74%
    04:00 +2°C° 0.2 mm 0 m/s 638 mmHg 75%
    05:00 +2°C° 0.2 mm 0 m/s 638 mmHg 76%
    06:00 +2°C° 0.2 mm 0 m/s 639 mmHg 76%
    07:00 +4°C° 0.2 mm 1 m/s 639 mmHg 73%
    08:00 +5°C° 0.2 mm 1 m/s 639 mmHg 70%
    09:00 +6°C° 0.2 mm 1 m/s 640 mmHg 67%
    10:00 +6°C° 0.2 mm 1 m/s 640 mmHg 66%
    11:00 +7°C° 0.2 mm 1 m/s 640 mmHg 65%
    12:00 +7°C° 0.2 mm 1 m/s 640 mmHg 63%
    13:00 +7°C° 0.3 mm 1 m/s 639 mmHg 63%
    14:00 +7°C° 0.3 mm 1 m/s 639 mmHg 63%
    15:00 +7°C° 0.3 mm 1 m/s 639 mmHg 63%
    16:00 +7°C° 0.3 mm 1 m/s 639 mmHg 65%
    17:00 +6°C° 0.3 mm 1 m/s 639 mmHg 67%
    18:00 +6°C° 0.3 mm 1 m/s 639 mmHg 69%
    19:00 +5°C° 0.2 mm 1 m/s 639 mmHg 71%
    20:00 +5°C° 0.2 mm 1 m/s 640 mmHg 72%
    21:00 +3°C° 0.2 mm 2 m/s 640 mmHg 74%
    22:00 +3°C° 0.3 mm 2 m/s 640 mmHg 75%
    23:00 +3°C° 0.3 mm 2 m/s 639 mmHg 75%
    Voir plus